Measurements were made at the meteorological tower in Juelich (50.90 N / 6.40 E) at an altitude of 100 m
"Instrument: Fast Greenhouse Gas Analyzer (FGGA), Los Gatos Inc."
Responsible PI: Dr. Marc von Hobe; Forschungszentrum Juelich GmbH; IEK-7; email: m.von.hobe@fz-juelich.de
NaN or negative numbers are fill values (i.e. no valid measurements were made at that time)
Uncertainties are given as the 1-sigma standard deviation over each 10 minute intervals. In each interval ~600 individual measurements are carried out so that the standard error of the mean is approximately sigma/sqrt(600).
time_utc,CO2_ppm,stdev_CO2_ppm,CH4_ppm,stdev_CH4_ppm,H2O_ppm,stdev_H2O_ppm
"2017-07-01 00:05:00 000",404.072,0.980386,1.96510,0.00623761,13160.1,192.996
"2017-07-01 00:15:00 000",405.244,0.972508,1.96732,0.00623635,13199.5,191.753
"2017-07-01 00:25:00 000",405.152,0.879833,1.96875,0.00597368,13252.9,175.222
"2017-07-01 00:35:00 000",405.411,0.919595,1.97225,0.00637567,13226.1,199.914
"2017-07-01 00:45:00 000",406.071,0.813442,1.97344,0.00582406,13213.5,188.020
"2017-07-01 00:55:00 000",406.046,0.977419,1.97060,0.00621179,13235.8,188.877
"2017-07-01 01:05:00 000",407.274,0.968480,1.96869,0.00591463,13268.8,177.406
"2017-07-01 01:15:00 000",407.749,0.867286,1.96565,0.00637544,13278.7,181.763
"2017-07-01 01:25:00 000",407.928,0.900549,1.96602,0.00610265,13340.8,193.652
"2017-07-01 01:35:00 000",409.154,0.896926,1.97190,0.00610688,13376.8,191.028
"2017-07-01 01:45:00 000",409.575,0.885081,1.98016,0.00621022,13368.1,184.362
"2017-07-01 01:55:00 000",410.597,1.08348,1.98330,0.00544060,13387.5,161.771
"2017-07-01 02:05:00 000",412.234,0.895230,1.98532,0.00542560,13278.3,161.860
"2017-07-01 02:15:00 000",411.282,0.880668,1.98587,0.00568422,13309.9,168.369
"2017-07-01 02:25:00 000",411.602,0.845390,1.98608,0.00555134,13235.6,163.830
"2017-07-01 02:35:00 000",412.178,0.952036,1.98773,0.00585650,13183.8,171.747
"2017-07-01 02:45:00 000",412.793,0.896677,1.98232,0.00611161,13078.6,159.810
"2017-07-01 02:55:00 000",412.767,0.887718,1.98399,0.00516875,13010.3,151.123
"2017-07-01 03:05:00 000",412.113,0.970702,1.98459,0.00533752,12943.4,162.432
"2017-07-01 03:15:00 000",413.774,0.878455,1.98607,0.00577678,12923.8,151.126
"2017-07-01 03:25:00 000",413.372,1.08597,1.98488,0.00597801,12849.3,152.880
"2017-07-01 03:35:00 000",413.285,0.976161,1.98183,0.00493806,12985.1,148.231
"2017-07-01 03:45:00 000",412.512,1.11248,1.98164,0.00529873,13042.0,144.124
"2017-07-01 03:55:00 000",414.077,1.04041,1.98485,0.00542990,13060.4,146.992
"2017-07-01 04:05:00 000",413.293,1.08642,1.98265,0.00658162,13135.0,160.175
"2017-07-01 04:15:00 000",413.579,0.968004,1.97455,0.00510404,13226.4,131.789
"2017-07-01 04:25:00 000",413.560,1.07235,1.97511,0.00529001,13306.1,134.032
"2017-07-01 04:35:00 000",414.071,1.06515,1.97686,0.00490156,13288.2,151.302
"2017-07-01 04:45:00 000",413.831,1.14033,1.97600,0.00566153,13378.3,155.062
"2017-07-01 04:55:00 000",413.102,1.13706,1.97677,0.00472117,13299.2,146.806
"2017-07-01 05:05:00 000",412.373,0.983620,1.97559,0.00447674,13179.1,148.496
"2017-07-01 05:15:00 000",412.503,0.947280,1.97568,0.00467066,13233.8,143.791
"2017-07-01 05:25:00 000",412.543,0.927435,1.97692,0.00473459,13251.2,139.921
"2017-07-01 05:35:00 000",412.179,0.962967,1.97630,0.00481615,13209.4,147.989
"2017-07-01 05:45:00 000",411.108,0.973206,1.97691,0.00506940,13236.1,138.004
"2017-07-01 05:55:00 000",410.164,1.13300,1.97532,0.00520406,13307.7,137.930
"2017-07-01 06:05:00 000",409.423,0.953827,1.97471,0.00467467,13357.0,135.808
"2017-07-01 06:15:00 000",409.343,0.992128,1.97362,0.00456769,13264.7,140.205
"2017-07-01 06:25:00 000",410.352,0.992201,1.97569,0.00473401,13386.5,157.279
"2017-07-01 06:35:00 000",410.236,1.06438,1.97821,0.00488749,13511.6,154.641
"2017-07-01 06:45:00 000",408.583,1.10731,1.97788,0.00492405,13585.4,141.878
"2017-07-01 06:55:00 000",406.462,1.15233,1.97377,0.00492731,13471.6,135.286
"2017-07-01 07:05:00 000",406.002,1.04926,1.97227,0.00475909,13410.2,165.777
"2017-07-01 07:15:00 000",407.388,1.09999,1.97624,0.00609916,13235.5,147.757
"2017-07-01 07:25:00 000",401.818,2.67213,1.94245,0.0133326,13036.1,150.600
"2017-07-01 07:35:00 000",398.338,1.06102,1.92395,0.00523894,12976.2,134.661
"2017-07-01 07:45:00 000",398.905,1.01817,1.92495,0.00570271,12956.9,121.645
"2017-07-01 07:55:00 000",399.063,1.15342,1.92365,0.00473651,12958.7,143.307
"2017-07-01 08:05:00 000",401.102,1.02228,1.92565,0.00416882,12978.0,148.100
"2017-07-01 08:15:00 000",400.940,1.04291,1.92979,0.00491839,13065.1,132.500
"2017-07-01 08:25:00 000",400.349,1.15831,1.93035,0.00485731,13254.2,151.007
"2017-07-01 08:35:00 000",398.194,1.09484,1.92569,0.00627195,13400.7,131.134
"2017-07-01 08:45:00 000",397.918,1.04019,1.91686,0.00483736,13297.0,132.940
"2017-07-01 08:55:00 000",397.923,0.960793,1.91920,0.00512541,13336.9,135.206
"2017-07-01 09:05:00 000",397.977,1.09106,1.92570,0.00655289,13387.1,135.665
"2017-07-01 09:15:00 000",397.585,1.19566,1.92908,0.00446336,13192.9,162.026
"2017-07-01 09:25:00 000",394.931,1.40916,1.91770,0.00625634,13228.0,142.953
"2017-07-01 09:35:00 000",392.798,0.964363,1.91043,0.00469177,13281.2,127.776
"2017-07-01 09:45:00 000",392.061,1.19179,1.90900,0.00586092,13318.2,137.036
"2017-07-01 09:55:00 000",394.539,1.05915,1.92024,0.00490466,13073.2,115.639
"2017-07-01 10:05:00 000",394.131,0.945759,1.92460,0.00475653,13141.5,116.996
"2017-07-01 10:15:00 000",393.245,0.965308,1.92584,0.00552020,13124.7,114.457
"2017-07-01 10:25:00 000",393.320,0.983541,1.92272,0.00542354,13171.0,117.949
"2017-07-01 10:35:00 000",392.764,1.07619,1.92599,0.00477138,13311.4,131.684
"2017-07-01 10:45:00 000",393.422,1.08194,1.92837,0.00496695,13452.6,126.812
"2017-07-01 10:55:00 000",394.252,0.989446,1.93321,0.00520608,13370.0,131.535
"2017-07-01 11:05:00 000",394.083,1.01959,1.93376,0.00577545,13479.2,143.586
"2017-07-01 11:15:00 000",393.871,0.945963,1.92928,0.00522369,13595.3,131.959
"2017-07-01 11:25:00 000",393.756,0.937960,1.92905,0.00466417,13800.9,149.647
"2017-07-01 11:35:00 000",392.670,1.06460,1.92919,0.00488220,14006.6,129.561
"2017-07-01 11:45:00 000",390.934,0.941067,1.92566,0.00448683,14213.2,155.485
"2017-07-01 11:55:00 000",390.803,0.906862,1.92732,0.00478911,14341.2,132.260
"2017-07-01 12:05:00 000",390.621,1.01664,1.92560,0.00453357,14446.5,138.497
"2017-07-01 12:15:00 000",390.419,1.07756,1.92724,0.00456508,14468.9,128.817
"2017-07-01 12:25:00 000",390.695,1.11978,1.92966,0.00432757,14441.6,153.748
"2017-07-01 12:35:00 000",391.367,1.03552,1.93094,0.00412776,14201.4,137.184
"2017-07-01 12:45:00 000",391.734,0.907200,1.93203,0.00425092,14212.5,136.769
"2017-07-01 12:55:00 000",392.000,0.846244,1.93359,0.00479859,14234.9,133.430
"2017-07-01 13:05:00 000",391.702,0.898345,1.93587,0.00470132,14287.8,132.187
"2017-07-01 13:15:00 000",391.952,0.995349,1.93780,0.00488953,14309.9,125.919
"2017-07-01 13:25:00 000",392.430,0.827022,1.93528,0.00472359,14232.3,129.491
"2017-07-01 13:35:00 000",392.364,0.849870,1.93581,0.00465849,14359.4,131.917
"2017-07-01 13:45:00 000",393.093,0.830850,1.94045,0.00456938,14357.7,135.876
"2017-07-01 13:55:00 000",392.741,0.865903,1.94396,0.00555900,14513.7,135.300
"2017-07-01 14:05:00 000",393.006,0.905492,1.94793,0.00511654,14567.9,141.345
"2017-07-01 14:15:00 000",392.240,0.858362,1.95674,0.00569094,14551.3,141.776
"2017-07-01 14:25:00 000",392.344,0.932765,1.95409,0.00474342,14494.4,136.951
"2017-07-01 14:35:00 000",391.703,1.00603,1.95660,0.00470769,14545.3,148.996
"2017-07-01 14:45:00 000",391.158,0.862399,1.95834,0.00470591,14526.1,140.097
"2017-07-01 14:55:00 000",390.725,0.888962,1.95957,0.00479453,14642.2,145.326
"2017-07-01 15:05:00 000",390.694,0.955372,1.96504,0.00532635,14737.1,151.680
"2017-07-01 15:15:00 000",390.510,0.861282,1.97268,0.00583728,14780.0,148.426
"2017-07-01 15:25:00 000",390.247,0.891979,1.97682,0.00580276,14667.4,146.669
"2017-07-01 15:35:00 000",389.819,0.967767,1.96967,0.00520709,14703.3,156.887
"2017-07-01 15:45:00 000",388.403,0.864051,1.97163,0.00480961,14936.6,152.304
"2017-07-01 15:55:00 000",388.803,0.850033,1.97002,0.00510014,15120.5,163.286
"2017-07-01 16:05:00 000",389.109,0.829316,1.97563,0.00550793,15229.8,140.156
"2017-07-01 16:15:00 000",388.544,0.782702,1.98374,0.00541958,15103.8,149.217
"2017-07-01 16:25:00 000",388.482,0.870281,1.98491,0.00510210,15114.8,139.372
"2017-07-01 16:35:00 000",388.528,0.916499,1.98366,0.00685070,15075.6,138.379
"2017-07-01 16:45:00 000",388.944,0.898468,1.98856,0.00516459,15009.9,152.177
"2017-07-01 16:55:00 000",389.248,0.882367,1.98787,0.00557253,14971.9,142.637
"2017-07-01 17:05:00 000",389.451,0.949968,1.99369,0.00586865,14940.9,149.495
"2017-07-01 17:15:00 000",389.945,1.08597,1.98675,0.0154667,14901.7,162.076
"2017-07-01 17:25:00 000",388.822,1.01578,1.95133,0.00515864,14520.0,217.628
"2017-07-01 17:35:00 000",387.463,0.885779,1.95007,0.00510108,14363.3,151.238
"2017-07-01 17:45:00 000",388.002,0.881823,1.95011,0.00515283,14457.1,149.243
"2017-07-01 17:55:00 000",388.789,0.892001,1.95099,0.00526415,14472.1,149.796
"2017-07-01 18:05:00 000",389.229,0.858276,1.95305,0.00490408,14556.7,153.145
"2017-07-01 18:15:00 000",389.298,0.934744,1.96070,0.00524053,14567.0,150.923
"2017-07-01 18:25:00 000",390.295,0.961154,1.96768,0.00659548,14631.5,143.777
"2017-07-01 18:35:00 000",391.146,0.893565,1.98443,0.0120282,14667.7,142.592
"2017-07-01 18:45:00 000",391.604,0.894075,2.01104,0.00878924,14809.9,146.230
"2017-07-01 18:55:00 000",392.319,0.834250,2.01817,0.00640834,14874.4,147.749
"2017-07-01 19:05:00 000",391.811,0.817807,2.02475,0.00523011,14945.1,155.483
"2017-07-01 19:15:00 000",392.851,0.911090,2.02551,0.00504943,15055.5,164.410
"2017-07-01 19:25:00 000",392.292,0.983889,2.02737,0.00547613,15157.5,157.472
"2017-07-01 19:35:00 000",393.095,0.929987,2.02280,0.00615522,15146.7,166.879
"2017-07-01 19:45:00 000",394.050,1.02636,2.01467,0.00634285,15174.0,164.099
"2017-07-01 19:55:00 000",393.983,1.14221,2.00910,0.00585855,15148.3,170.186
"2017-07-01 20:05:00 000",392.177,0.879610,2.00821,0.00608951,15215.1,176.409
"2017-07-01 20:15:00 000",391.762,0.883049,2.01032,0.00544546,15232.5,168.136
"2017-07-01 20:25:00 000",391.549,0.872682,2.00638,0.00582534,15287.0,165.488
"2017-07-01 20:35:00 000",392.427,1.06007,2.00806,0.00602511,15250.3,173.635
"2017-07-01 20:45:00 000",394.187,1.00347,2.00730,0.00632768,15167.5,171.163
"2017-07-01 20:55:00 000",394.553,0.988653,2.00153,0.00574543,15107.3,177.500
"2017-07-01 21:05:00 000",394.881,0.992325,1.99688,0.00596817,15103.0,169.724
"2017-07-01 21:15:00 000",394.609,1.00775,1.99140,0.00646435,14979.6,179.106
"2017-07-01 21:25:00 000",394.829,0.981193,1.99020,0.00559904,14877.1,181.227
"2017-07-01 21:35:00 000",395.742,0.931502,1.98830,0.00599591,14710.2,172.693
"2017-07-01 21:45:00 000",395.956,1.09495,1.98165,0.00620407,14547.5,175.287
"2017-07-01 21:55:00 000",396.646,0.965280,1.97609,0.00599800,14409.6,172.079
"2017-07-01 22:05:00 000",397.322,1.35653,1.97459,0.00551313,14343.1,171.759
"2017-07-01 22:15:00 000",399.374,1.29173,1.97154,0.00587839,14241.1,153.201
"2017-07-01 22:25:00 000",400.333,0.984977,1.96813,0.00578026,14134.5,158.136
"2017-07-01 22:35:00 000",401.329,0.998550,1.96704,0.00542897,13987.6,155.421
"2017-07-01 22:45:00 000",401.997,0.962299,1.97087,0.00551087,13925.8,145.130
"2017-07-01 22:55:00 000",402.709,0.962756,1.97044,0.00553586,13928.5,145.013
"2017-07-01 23:05:00 000",402.948,0.914520,1.97055,0.00513942,13952.5,150.715
"2017-07-01 23:15:00 000",403.852,0.955099,1.97029,0.00521756,13978.2,158.372
"2017-07-01 23:25:00 000",404.853,0.922671,1.96577,0.00528371,13934.3,141.714
"2017-07-01 23:35:00 000",404.761,0.991647,1.96030,0.00543404,13900.5,146.638
"2017-07-01 23:45:00 000",404.828,0.996038,1.96061,0.00473743,13917.9,153.060
"2017-07-01 23:55:00 000",404.627,1.05334,1.96015,0.00531501,13921.5,144.571
"2017-07-02 00:05:00 000",404.907,1.05066,1.95884,0.00534300,13795.2,161.078
"2017-07-02 00:15:00 000",406.545,1.00699,1.95862,0.00538527,13607.4,164.798
"2017-07-02 00:25:00 000",405.629,0.958314,1.95854,0.00532417,13423.5,152.983
"2017-07-02 00:35:00 000",406.284,1.07636,1.95111,0.00586188,13304.8,145.370
"2017-07-02 00:45:00 000",406.919,1.11173,1.94682,0.00666430,13133.9,147.927
"2017-07-02 00:55:00 000",407.459,1.02536,1.96696,0.0137747,13011.9,148.600
"2017-07-02 01:05:00 000",407.770,1.04440,1.96363,0.00689021,12972.6,143.642
"2017-07-02 01:15:00 000",407.909,1.01926,1.95599,0.00517368,12949.5,148.296
"2017-07-02 01:25:00 000",408.203,1.24185,1.96055,0.00645668,12814.0,145.336
"2017-07-02 01:35:00 000",410.064,1.16641,1.96806,0.00590756,12612.0,150.095
"2017-07-02 01:45:00 000",410.700,1.13198,1.96594,0.00678764,12635.0,146.293
"2017-07-02 01:55:00 000",410.570,1.00932,1.97102,0.00760117,12726.3,161.131
"2017-07-02 02:05:00 000",410.591,1.03796,1.97178,0.00952014,12785.3,141.127
"2017-07-02 02:15:00 000",410.514,1.11187,1.96489,0.00492275,12812.4,137.424
"2017-07-02 02:25:00 000",410.374,1.09495,1.97040,0.00930180,12788.3,129.763
"2017-07-02 02:35:00 000",409.790,1.09705,1.99199,0.00806340,12889.5,144.050
"2017-07-02 02:45:00 000",408.474,1.12325,1.98035,0.00869540,12954.3,168.847
"2017-07-02 02:55:00 000",407.517,1.10962,1.97147,0.00733412,13118.2,145.182
"2017-07-02 03:05:00 000",407.545,1.01214,1.96219,0.00640666,13236.3,130.734
"2017-07-02 03:15:00 000",406.923,1.05268,1.95655,0.00541892,13292.1,129.331
"2017-07-02 03:25:00 000",408.083,1.42574,1.96007,0.0113980,13291.8,141.350
"2017-07-02 03:35:00 000",409.752,1.21127,1.96277,0.00624111,13268.4,127.526
"2017-07-02 03:45:00 000",411.027,1.11584,1.95910,0.00504716,13265.5,137.758
"2017-07-02 03:55:00 000",411.273,1.08392,1.95605,0.00528589,13355.0,150.883
"2017-07-02 04:05:00 000",410.988,1.04490,1.95538,0.00521144,13421.3,162.235
"2017-07-02 04:15:00 000",410.821,1.13733,1.95335,0.00495336,13550.1,159.125
"2017-07-02 04:25:00 000",410.305,1.13097,1.95212,0.00534939,13724.8,161.102
"2017-07-02 04:35:00 000",410.168,1.24845,1.95049,0.00528170,13749.3,134.481
"2017-07-02 04:45:00 000",410.467,1.14969,1.95163,0.00474998,13850.3,135.320
"2017-07-02 04:55:00 000",411.305,1.06498,1.95786,0.00511567,13827.0,131.443
"2017-07-02 05:05:00 000",412.123,0.996488,1.96052,0.00464078,13823.4,127.566
"2017-07-02 05:15:00 000",411.964,1.01675,1.96164,0.00476952,13866.2,142.057
"2017-07-02 05:25:00 000",410.829,0.972662,1.96522,0.00491940,13835.8,146.890
"2017-07-02 05:35:00 000",410.019,1.03844,1.96391,0.00510604,13712.5,161.178
"2017-07-02 05:45:00 000",410.429,0.960689,1.96617,0.00558736,13291.6,218.491
"2017-07-02 05:55:00 000",409.966,0.948778,1.96686,0.00548362,12779.7,157.125
"2017-07-02 06:05:00 000",409.751,0.925403,1.97215,0.00569217,12566.8,143.398
"2017-07-02 06:15:00 000",408.626,1.04258,1.97054,0.00547613,12613.9,174.256
"2017-07-02 06:25:00 000",407.394,0.948987,1.96939,0.00496648,12663.6,137.292
"2017-07-02 06:35:00 000",406.080,0.853144,1.97051,0.00482240,12664.6,149.036
"2017-07-02 06:45:00 000",406.290,0.882069,1.96805,0.00473350,12644.3,149.712
"2017-07-02 06:55:00 000",406.229,0.844121,1.96973,0.00492535,12774.2,145.056
"2017-07-02 07:05:00 000",405.394,1.03977,1.97245,0.00469526,12785.7,140.785
"2017-07-02 07:15:00 000",404.457,0.945041,1.97482,0.00487904,12810.4,144.234
"2017-07-02 07:25:00 000",404.466,0.897095,1.97868,0.00491450,12672.1,157.815
"2017-07-02 07:35:00 000",403.121,0.936146,1.98572,0.00612527,12667.6,156.739
"2017-07-02 07:45:00 000",403.151,1.13089,1.98348,0.00542313,12698.3,171.197
"2017-07-02 07:55:00 000",403.918,0.913236,1.98149,0.00526870,12767.7,155.003
"2017-07-02 08:05:00 000",403.131,1.05064,1.98002,0.00543118,12990.5,190.993
"2017-07-02 08:15:00 000",402.726,1.05270,1.97672,0.00548658,12751.2,246.672
"2017-07-02 08:25:00 000",401.996,1.06321,1.97722,0.00575503,12475.2,166.545
"2017-07-02 08:35:00 000",402.562,0.892513,1.97400,0.00538693,12421.1,161.837
"2017-07-02 08:45:00 000",401.444,0.885212,1.97434,0.00545861,12489.2,150.785
"2017-07-02 08:55:00 000",401.293,0.963996,1.96433,0.00549691,12509.4,167.008
"2017-07-02 09:05:00 000",399.229,1.31613,1.96471,0.00626861,12651.4,226.799
"2017-07-02 09:15:00 000",400.484,0.895504,1.95780,0.00509696,12323.0,160.452
"2017-07-02 09:25:00 000",399.488,0.895512,1.95369,0.00573645,12452.3,161.483
"2017-07-02 09:35:00 000",398.123,0.984653,1.95489,0.00572332,12507.8,164.755
"2017-07-02 09:45:00 000",398.688,0.980191,1.94702,0.00503335,12529.5,174.155
"2017-07-02 09:55:00 000",398.709,1.00329,1.94959,0.00603046,12621.7,186.519
"2017-07-02 10:05:00 000",398.620,0.943313,1.94697,0.00559581,12619.0,186.108
"2017-07-02 10:15:00 000",396.575,1.05208,1.95165,0.00565741,12789.4,199.416
"2017-07-02 10:25:00 000",395.643,0.922691,1.95220,0.00646559,12966.7,196.162
"2017-07-02 10:35:00 000",396.047,0.982919,1.94750,0.00634052,12797.3,188.659
"2017-07-02 10:45:00 000",395.901,1.01993,1.94465,0.00640484,12858.9,222.978
"2017-07-02 10:55:00 000",394.153,0.964131,1.94279,0.00634854,12965.6,192.172
"2017-07-02 11:05:00 000",394.740,1.12722,1.94396,0.00621628,12738.5,213.410
"2017-07-02 11:15:00 000",394.155,1.10219,1.93864,0.00691983,12953.5,204.458
"2017-07-02 11:25:00 000",394.364,1.20089,1.94136,0.00657398,12845.8,197.974
"2017-07-02 11:35:00 000",395.409,1.06471,1.94173,0.00638175,12748.7,193.539
"2017-07-02 11:45:00 000",395.555,0.901472,1.94309,0.00635805,12848.2,225.121
"2017-07-02 11:55:00 000",395.827,0.915562,1.93377,0.00730245,13091.4,195.192
"2017-07-02 12:05:00 000",395.495,1.00172,1.93120,0.00591130,13212.9,170.693
"2017-07-02 12:15:00 000",396.324,0.911571,1.93819,0.00666803,12998.4,182.715
"2017-07-02 12:25:00 000",396.150,0.965361,1.93916,0.00635985,13131.3,195.711
"2017-07-02 12:35:00 000",396.774,0.874123,1.94149,0.00626744,13141.8,186.672
"2017-07-02 12:45:00 000",395.406,0.941343,1.94077,0.00717160,13097.0,190.661
"2017-07-02 12:55:00 000",394.364,0.915233,1.94035,0.00663573,13172.7,187.353
"2017-07-02 13:05:00 000",394.732,0.966427,1.93460,0.00666033,12961.1,176.230
"2017-07-02 13:15:00 000",395.083,1.00087,1.93117,0.00594326,13320.0,292.702
"2017-07-02 13:25:00 000",395.694,0.946867,1.93658,0.00793057,13809.0,176.502
"2017-07-02 13:35:00 000",396.628,0.967250,1.93723,0.00645348,13380.6,216.066
"2017-07-02 13:45:00 000",396.523,0.945959,1.93797,0.00628338,13085.3,255.031
"2017-07-02 13:55:00 000",394.370,1.18557,1.93934,0.00648782,13876.6,308.899
"2017-07-02 14:05:00 000",393.993,0.898748,1.94718,0.00786296,13708.0,355.786
"2017-07-02 14:15:00 000",396.119,1.03007,1.94773,0.00718999,13408.9,217.871
"2017-07-02 14:25:00 000",394.335,0.979444,1.93941,0.00642775,13803.4,211.835
"2017-07-02 14:35:00 000",394.113,1.00789,1.93857,0.00615434,14275.8,267.537
"2017-07-02 14:45:00 000",395.193,1.07289,1.93996,0.00651618,14947.4,282.920
"2017-07-02 14:55:00 000",394.516,1.07592,1.94669,0.00672018,15317.7,198.222
"2017-07-02 15:05:00 000",394.962,0.929799,1.94790,0.00663865,15217.4,190.930
"2017-07-02 15:15:00 000",394.328,0.997571,1.94784,0.00653473,15526.2,232.618
"2017-07-02 15:25:00 000",392.424,0.992867,1.94860,0.00623983,16078.5,268.837
"2017-07-02 15:35:00 000",392.901,1.31394,1.95220,0.00674779,16317.5,209.460
"2017-07-02 15:45:00 000",392.614,1.07654,1.94925,0.00654646,16306.8,195.793
"2017-07-02 15:55:00 000",391.606,1.24305,1.95085,0.00584529,15890.4,324.587
"2017-07-02 16:05:00 000",393.225,1.20077,1.95668,0.00659220,15053.8,266.865
"2017-07-02 16:15:00 000",392.279,1.16824,1.95494,0.00609516,14790.5,172.098
"2017-07-02 16:25:00 000",392.815,1.04311,1.95668,0.00617157,14874.0,153.971
"2017-07-02 16:35:00 000",392.811,1.00082,1.96060,0.00671103,15006.7,149.644
"2017-07-02 16:45:00 000",391.946,1.19778,1.95796,0.00680311,15190.2,166.070
"2017-07-02 16:55:00 000",392.254,0.998056,1.96032,0.00882414,14790.0,160.498
"2017-07-02 17:05:00 000",393.781,1.28711,1.94303,0.0100098,14042.6,620.864
"2017-07-02 17:15:00 000",394.555,0.947824,1.93567,0.00534174,12826.2,181.983
"2017-07-02 17:25:00 000",394.873,1.24685,1.92884,0.00506016,12382.9,176.921
"2017-07-02 17:35:00 000",395.226,0.860680,1.93043,0.00522569,12445.6,134.845
"2017-07-02 17:45:00 000",394.986,0.882074,1.92865,0.00486915,12449.5,101.513
"2017-07-02 17:55:00 000",394.323,0.897490,1.92588,0.00516285,12316.4,119.346
"2017-07-02 18:05:00 000",394.215,0.846992,1.92651,0.00529410,12294.8,115.631
"2017-07-02 18:15:00 000",393.614,0.877613,1.92549,0.00507357,12219.3,116.773
"2017-07-02 18:25:00 000",393.104,0.933147,1.92293,0.00504789,11641.2,287.010
"2017-07-02 18:35:00 000",392.978,1.38275,1.92205,0.00513376,11279.9,137.984
"2017-07-02 18:45:00 000",392.204,1.04496,1.92298,0.00552659,11293.7,117.658
"2017-07-02 18:55:00 000",392.714,0.955012,1.92788,0.00543683,11465.4,126.549
"2017-07-02 19:05:00 000",392.733,0.876456,1.92669,0.00594708,11432.4,117.339
"2017-07-02 19:15:00 000",393.628,0.991359,1.92725,0.00565647,11262.2,137.203
"2017-07-02 19:25:00 000",393.625,1.01261,1.92979,0.00608379,11021.2,157.609
"2017-07-02 19:35:00 000",393.536,0.979964,1.92676,0.00641763,10710.4,169.827
"2017-07-02 19:45:00 000",394.024,1.02299,1.92978,0.00715719,10537.4,151.004
"2017-07-02 19:55:00 000",394.016,0.932691,1.94403,0.00752057,10481.7,153.202
"2017-07-02 20:05:00 000",394.475,1.03646,1.93797,0.00643458,10452.7,167.536
"2017-07-02 20:15:00 000",395.144,1.05875,1.93850,0.00618542,10450.1,171.195
"2017-07-02 20:25:00 000",395.399,1.00465,1.94065,0.00647873,10410.3,183.982
"2017-07-02 20:35:00 000",394.501,0.945664,1.94033,0.00741636,10405.7,206.347
"2017-07-02 20:45:00 000",395.788,1.19234,1.94869,0.00806260,10468.3,191.279
"2017-07-02 20:55:00 000",396.288,1.17224,1.95495,0.00719938,10542.4,196.174
"2017-07-02 21:05:00 000",398.520,1.06956,1.96136,0.00888616,10515.8,196.290
"2017-07-02 21:15:00 000",399.454,1.15698,1.97371,0.00863959,10407.5,201.390
"2017-07-02 21:25:00 000",399.355,0.872356,1.97019,0.0129002,10348.5,198.974
"2017-07-02 21:35:00 000",400.349,1.01538,1.98112,0.00717036,10361.9,196.065
"2017-07-02 21:45:00 000",400.627,1.01214,1.98027,0.00835867,10423.8,189.835
"2017-07-02 21:55:00 000",400.861,0.924288,1.97464,0.00584794,10385.0,183.689
"2017-07-02 22:05:00 000",401.271,0.983893,1.97239,0.00553405,10330.5,188.495
"2017-07-02 22:15:00 000",401.590,0.996507,1.98153,0.00791520,10294.3,181.735
"2017-07-02 22:25:00 000",402.418,0.843555,1.98405,0.00710213,10274.4,176.948
"2017-07-02 22:35:00 000",402.264,1.06547,1.98099,0.00492145,10201.7,158.862
"2017-07-02 22:45:00 000",403.021,0.915016,1.98429,0.00649677,10204.0,164.229
"2017-07-02 22:55:00 000",403.427,1.01715,1.99359,0.0102412,10157.3,161.297
"2017-07-02 23:05:00 000",402.897,0.913504,1.99357,0.00656550,10156.6,169.587
"2017-07-02 23:15:00 000",403.263,1.04082,1.99004,0.00489603,10098.9,150.094
"2017-07-02 23:25:00 000",404.442,0.939482,1.98649,0.00506337,10063.7,157.545
"2017-07-02 23:35:00 000",404.818,0.969003,1.98096,0.00502761,10063.1,153.306
"2017-07-02 23:45:00 000",405.899,1.20950,1.97615,0.00503315,10099.9,144.382
"2017-07-02 23:55:00 000",406.929,1.02367,1.97661,0.00525463,10074.9,166.513
"2017-07-03 00:05:00 000",406.892,1.06041,1.97299,0.00541799,10127.8,137.740
"2017-07-03 00:15:00 000",410.348,1.94011,1.97871,0.0211313,9989.40,146.354
"2017-07-03 00:25:00 000",410.597,1.46805,1.99124,0.0114483,10142.2,175.851
"2017-07-03 00:35:00 000",413.181,2.21431,2.00952,0.0130665,10069.7,151.889
"2017-07-03 00:45:00 000",411.103,1.82383,1.99563,0.0132875,10153.6,147.376
"2017-07-03 00:55:00 000",412.171,1.78676,2.00148,0.0139440,9962.39,132.218
"2017-07-03 01:05:00 000",410.509,1.25542,1.98548,0.00727180,10045.4,132.637
"2017-07-03 01:15:00 000",409.021,1.07857,1.97943,0.00624067,10071.9,134.639
"2017-07-03 01:25:00 000",410.023,2.07336,1.98517,0.0159543,9928.51,173.821
"2017-07-03 01:35:00 000",410.987,1.69516,1.99352,0.00965935,9826.61,140.468
"2017-07-03 01:45:00 000",409.039,1.71217,1.98790,0.0119042,10044.7,127.232
"2017-07-03 01:55:00 000",414.127,1.58803,2.02979,0.0162843,9747.18,141.496
"2017-07-03 02:05:00 000",414.510,1.05840,2.01115,0.00628025,9921.12,141.589